www.pogodaiklimat.ru

Погода и климат >> Архив погоды >> Россия >> Якутия >> Полярный


ПОГОДА в Полярном

  • Прогноз погоды в Полярном
  • Монитор погоды в Полярном

АРХИВ ПОГОДЫ в Полярном

Время (UTC), дата Ветер
(напр.,м/с)
 
Видим.   Явления Облачность Т
(С)
Тd
(С)
f
(%)
Тe
(С)
Тes
(С)
Комфортность P
(гПа)
Po
(гПа)
Тmin
(С)
Tmax
(С)
R
(мм)
R24
(мм)
S
(см)
00 12.07 Ю 2 50 км в посл. час ливневой дождь 10/5 300 м
[Cb cap As op]
+15.4 +12.3 82 +15 +16 1007.5 950.0 +15.1 0.5
03 12.07 Ю 2 50 км {ливн. осадки} 10/5 300 м
[Cb cap As op]
+16.0 +13.1 83 +16 +17 1008.2 950.8
06 12.07 нст 1 50 км {ливн. осадки} 10/5 300 м
[Cb cap As op]
+17.5 +14.2 81 +19 +20 1008.0 951.0
09 12.07 СЗ 3 20 км дым 10/6 600 м
[Cb cap As trans]
+18.0 +13.8 76 +18 +19 1009.1 952.1
12 12.07 СЗ 3 50 км 10/6 360 м
[Cb cap Ac und]
+13.3 +10.2 81 +12 +12 1012.4 954.3 +19.0
15 12.07 С 3 50 км 10/6 360 м
[Cb cap Ac und]
+12.2 +9.2 82 +11 +11 1013.3 954.8
18 12.07 нст 1 50 км 10/6 570 м
[Cb cap Ac und]
+10.3 +9.3 94 +10 +10 1014.2 955.3
21 12.07 нст 1 50 км 10/5 600 м
[Cb cap Ac und]
+9.0 +8.6 97 +8 +8 1014.1 954.9
00 13.07 нст 1 50 км 10/5 600 м
[Cb cap Ac und]
+12.5 +8.5 77 +13 +13 1013.0 954.6 +9.0
03 13.07 нст 1 50 км 8/3 600 м
[Sc diur, vesp Ac trans Ci fib]
+16.7 +6.6 51 +18 +23 1010.7 953.3
06 13.07 ЮЗ 3 50 км 8/3 600 м
[Sc diur, vesp Ac trans Ci fib]
+20.6 +6.9 41 +22 +26 комфорт 1008.6 952.0
09 13.07 З 1 50 км 10/5 600 м
[Cu med, cong Ac trans]
+20.8 +9.7 49 +24 +25 комфорт 1007.2 950.7
12 13.07 СЗ 2 50 км 10/5 300 м
[Cb cap Ac trans]
+18.2 +11.7 66 +19 +19 1007.7 950.8 +21.8
15 13.07 З 2 50 км {дождь} 9/5 600 м
[Sc Ac trans]
+15.8 +13.1 84 +16 +16 1009.0 951.5
18 13.07 СЗ 1 50 км {дождь} 10/5 300 м
[St Ac und]
+13.0 +12.4 96 +13 +13 1010.0 951.9
21 13.07 нст 1 2000 м в посл. час туман 10/6 240 м
[St Ac und]
+12.8 +12.4 97 +13 +13 1010.7 952.5
00 14.07 С 2 50 км {туман} 8/5 300 м
[St Ac trans]
+14.6 +11.0 79 +14 +16 1011.6 953.7 +12.9 0.0
03 14.07 СЗ 2 50 км 6/4 600 м
[Cu hum Ci fib]
+19.0 +10.7 59 +20 +26 1011.1 954.1
06 14.07 СВ 3 50 км 5/5 600 м
[Cu med, cong]
+21.4 +9.8 48 +23 +27 комфорт 1011.2 954.5
09 14.07 С 3 50 км 10/5 1000 м
[Cu med, cong Ci fib]
+21.4 +7.8 42 +22 +24 комфорт 1011.5 954.8
12 14.07 С 3 50 км 10/5 1000 м
[Cu hum Ci fib]
+20.4 +9.6 50 +22 +22 комфорт 1012.5 955.6 +23.0
15 14.07 СВ 2 50 км 10/5 1000 м
[Cu hum Ci fib]
+16.8 +9.8 63 +17 +17 1014.6 956.9
18 14.07 СВ 3 50 км 10/5 1000 м
[Cu hum Ac trans Ci fib]
+14.4 +9.6 73 +14 +14 1016.0 957.8
21 14.07 СВ 2 50 км 6/4 1000 м
[Cu hum Ac trans Ci fib]
+14.7 +10.1 74 +14 +15 1016.5 958.4
00 15.07 штиль 0 50 км 8/3 1000 м
[Cu med, cong Ci fib]
+19.4 +11.0 58 +20 +24 1016.5 959.2 +14.5
03 15.07 нст 1 50 км 8/5 1000 м
[Cu hum Ci fib]
+22.0 +9.1 44 +23 +29 комфорт 1015.7 959.0
06 15.07 нст 1 50 км 8/5 600 м
[Cb cap Ac trans]
+23.8 +6.9 34 +24 +28 комфорт 1015.0 958.7
09 15.07 нст 1 50 км {ливн. осадки} 10/5 600 м
[Cb cap Ac trans]
+23.5 +8.6 39 +24 +25 комфорт 1014.3 958.0
12 15.07 С 2 50 км {ливн. осадки} 8/3 600 м
[Cu med, cong Ci fib]
+22.8 +9.1 42 +24 +25 комфорт 1014.5 958.0 +24.5 0.0
15 15.07 СВ 2 50 км 8/0
[Ac cast Ci fib]
+18.8 +11.3 62 +20 +20 1015.6 958.4
18 15.07 СВ 2 50 км 10/0
[Ac cuf Ci fib]
+15.8 +10.9 73 +16 +16 1016.3 958.4
21 15.07 З 2 50 км 10/0
[Ac trans Ci fib]
+15.8 +11.8 77 +16 +16 1016.0 958.2
00 16.07 З 2 50 км 6/0
[Ac trans Ci fib]
+19.9 +9.2 50 +22 +25 комфорт 1015.7 958.6 +13.4
03 16.07 З 5 50 км 6/0
[Ac trans Ci fib]
+24.0 +6.9 33 +24 +28 комфорт 1013.7 957.4
06 16.07 СЗ 3 50 км 8/5 1000 м
[Cu med, cong Ci fib]
+26.0 +7.4 31 +26 +30 жарко 1011.5 955.7
09 16.07 З 4
{10}
50 км 8/5 600 м
[Sc Ac trans]
+26.0 +8.0 32 +26 +27 жарко 1010.0 954.4
12 16.07 З 1 50 км 10/5 1000 м
[Sc Ac trans]
+24.8 +10.2 40 +26 +26 жарко 1009.1 953.3 +26.1
15 16.07 СЗ 2 50 км 8/5 1000 м
[Sc Ac trans]
+20.8 +11.9 57 +24 +24 комфорт 1009.6 953.0
18 16.07 С 5
{10}
20 км 10/6 300 м
[Cb cap Ac und]
+19.0 +12.6 66 +20 +20 1009.6 952.8
21 16.07 нст 1 50 км {ливн. осадки} 10/5 600 м
[Sc Ac und]
+15.8 +13.5 86 +16 +17 1008.6 951.2
00 17.07 З 4 50 км {ливн. осадки} 10/5 300 м
[Cb cap Ac und]
+17.7 +15.0 84 +17 +18 1008.0 951.0 +15.9 0.0
03 17.07 СЗ 6-12
{12}
50 км 9/5 300 м
[Cb cap Ac trans]
+20.2 +10.7 54 +21 +22 комфорт 1007.5 950.9
06 17.07 СЗ 6-12
{12}
50 км 10/5 300 м
[St Ac und]
+17.5 +10.0 61 +17 +17 1009.9 952.7
09 17.07 С 5-12
{12}
50 км 10/6 300 м
[Cb cap Ac und]
+12.5 +7.1 70 +10 +11 1013.7 955.3
12 17.07 С 3
{12}
50 км 8/5 300 м
[Cb cap Ac trans]
+13.0 +6.1 63 +12 +12 1015.4 956.9 +20.4
15 17.07 С 5-11
{10}
50 км 6/4 1000 м
[Sc Ac trans]
+10.7 +5.7 71 +8 +8 1016.9 957.9
18 17.07 С 4 20 км 10/8 480 м
[St Ac und]
+7.4 +2.9 73 +4 +4 1019.2 959.3
21 17.07 С 3
{10}
50 км 5/0
[Ac trans]
+5.6 +1.9 77 +2 +3 1020.7 960.4
00 18.07 СЗ 4 50 км 5/0
[Ac trans]
+8.2 +2.8 69 +5 +8 1020.3 960.5 +5.6
03 18.07 С 6-11
{11}
50 км 6/0
[Ac trans Ci fib]
+12.4 +2.3 50 +10 +13 1019.1 960.2
06 18.07 С 6-11
{11}
50 км 8/5 600 м
[Cu hum Ac trans Ci fib]
+14.7 +2.0 42 +13 +15 1018.8 960.4
09 18.07 С 6-10
{13}
50 км 5/0
[Ci fib]
+14.7 -1.0 34 +13 +15 1019.2 960.8
12 18.07 СВ 5-11
{11}
50 км 3/0
[Ci fib]
+13.4 +0.7 42 +12 +12 1020.6 961.8 +15.3
15 18.07 С 3
{10}
50 км 4/0
[Ci fib]
+9.8 +1.7 57 +8 +8 1022.5 962.9
18 18.07 С 3 20 км 4/0
[Ci fib]
+7.4 +1.8 68 +5 +5 1023.9 963.7
21 18.07 СЗ 1 50 км 8/5 1000 м
[Sc Ac trans Ci fib]
+6.4 +2.0 73 +6 +6 1025.1 964.6

 

Местоположение метеостанции Полярный (Якутия, Россия): широта 66.73 долгота 112.40 высота над уровнем моря 501 м.

В архиве по умолчанию представлена погода в Полярном за последнюю неделю. Архивные данные за месяц целиком и за предыдущие месяцы, начиная с января 2011 года, Вы можете получить, выбрав интересующий диапазон дат из раскрывающегося списка и нажав кнопку "Ввод!".


*Определитесь, кто Вы:
робот инопланетянин человек

Внимание! Время в таблицах - всемирное. Для получения местного времени необходимо прибавить поправку, которая равна 9 ч.

Смотрите также архив погоды в соседних городах и на ближайших метеорологических станциях:

Погода в Шелагонцах (Якутия, Россия) (96 км)
Погода в Айхале (Якутия, Россия) (99 км)
Погода в Ярольине (Якутия, Россия) (176 км)
Погода в Оленеке (Якутия, Россия) (197 км)
Погода в Эйке (Якутия, Россия) (236 км)
Погода в Хабардино (Якутия, Россия) (237 км)
Погода в Сухане (Якутия, Россия) (326 км)
Погода в Чумпуруке (Якутия, Россия) (347 км)
Погода в Джалинде (Якутия, Россия) (383 км)
Погода в Чернышевском (Якутия, Россия) (412 км)

Пояснения к столбцам:

Ветер - указаны скорость ветра в м/с - средняя за 10 мин, порывы в срок и между сроками (в фигурных скобках) и направление, откуда дует ветер: С - северный, СВ - северо-восточный, В - восточный, ЮВ - юго-восточный, Ю - южный, ЮЗ - юго-западный, З - западный, СЗ - северо-западный.
Видимость - горизонтальная дальность видимости в метрах или километрах. При видимости от 1 до 10 км при отсутствии осадков обычно наблюдается дымка, при ухудшении видимости до 1 км и менее - туман. В сухую погоду видимость может ухудшаться дымом, пылью или мглою.
Явления - указаны атмосферные явления, наблюдавшиеся в срок или в последний час перед сроком; фигурными скобками обозначены явления, наблюдавшиеся между сроками (за 1-3 часа до срока); квадратными скобками обозначены град или гололедные отложения с указанием их диаметра в мм.
Облачность - указаны через наклонную черту общая и нижняя облачность в баллах и высота нижней границы облаков в метрах; квадратными скобками обозначены формы облаков: Ci - перистые, Cs - перисто-слоистые, Cc - перисто-кучевые, Ac - высококучевые, As - высокослоистые, Sc - слоисто-кучевые, Ns - слоисто-дождевые, Cu - кучевые, Cb - кучево-дождевые. Подробнее классификацию облаков см. в Атласе облаков (PDF).
T - Температура воздуха - температура, измеренная на высоте 2 м над землей.
Td - Температура точки росы - температура, при понижении до которой содержащийся в воздухе водяной пар достигнет насыщения.
f - Относительная влажность воздуха - влажноcть воздуха, измеренная на высоте 2 м над землей.
Te - Эффективная температура - температура, которую ощущает одетый по сезону человек в тени. Характеристика душности погоды. При расчете учитывается влияние влажности воздуха и скорости ветра на теплоощущения человека.
Tes - Эффективная температура на солнце - температура, которую ощущает человек, с поправкой на солнечный нагрев. Характеристика знойности погоды. Зависит от высоты солнца над горизонтом, облачности и скорости ветра. Ночью, в пасмурную погоду, а также при ветре 12 м/с и более поправка равна нулю.
P - Атмосферное давление - приведенное к уровню моря атмосферное давление.
Po - Атмосферное давление - измеренное на уровне метеостанции атмосферное давление.
Tmin - Минимальная температура - минимум температуры воздуха на высоте 2 м над землей.
Tmax - Максимальная температура - максимум температуры воздуха на высоте 2 м над землей.
R - Количество осадков - Количество выпавших осадков за период времени, мм. При наведении курсора мыши на число - период времени, за который выпало указанное количество осадков.
R24 - Количество осадков - Количество выпавших осадков за 24 часа, мм.
S - Снежный покров - Высота снежного покрова, см. При наведении курсора мыши на число - состояние снежного покрова и степень покрытия местности в баллах.